Regional Weather Roundup
Issued by NWS

Home | Current Version | Previous Version | Text Only | Print | Product List | Glossary Off
Versions: 1 2 3 4 5 6 7 8 9 10 11 12 13 14 15 16 17 18 19 20 21 22 23 24 25 26 27 28 29 30 31 32 33 34 35 36 37 38 39 40 41 42 43 44 45 46 47 48 49 50

000
ASUS43 KLSX 030759
RWRMO

WEATHER SUMMARY FOR MISSOURI
NATIONAL WEATHER SERVICE SPRINGFIELD MO
300 AM CDT MON AUG 03 2015

NOTE: "FAIR" INDICATES FEW OR NO CLOUDS BELOW 12,000 FEET WITH NO
       SIGNIFICANT WEATHER AND/OR OBSTRUCTIONS TO VISIBILITY.
       CURRENT SKY AND/OR WEATHER CONDITIONS ARE NOT AVAILABLE FOR
       CHILLICOTHE AND FARMINGTON.

MOZ001>031-035>038-043-044-053-054-030900-
...NORTHERN AND WESTERN MISSOURI...

CITY           SKY/WX    TMP DP  RH WIND       PRES   REMARKS
KANSAS CTY INT MOCLDY    75  66  73 NE12      29.93R
KANSAS C DTWN  CLEAR     76  69  79 NE9       29.90R
LEE`S SUMMIT   PTCLDY    75  66  73 E5        29.92R
ST JOSEPH      PTCLDY    72  64  76 SE7       29.90F
CHILLICOTHE      N/A     73  64  73 W7        29.89S
KIRKSVILLE     LGT RAIN  71  57  61 NW6       29.86S

$$
MOZ066>068-077>081-088>096-101>105-030900-
...SOUTHWEST MISSOURI...

CITY           SKY/WX    TMP DP  RH WIND       PRES   REMARKS
SPRINGFIELD    CLEAR     70  63  78 CALM      29.95R
JOPLIN         CLEAR     72  66  81 S5        29.92F

$$
MOZ032>034-039>042-045>050-055>058-069>072-030900-
...CENTRAL MISSOURI...

CITY           SKY/WX    TMP DP  RH WIND       PRES   REMARKS
COLUMBIA       CLOUDY    72  63  73 SW9       29.84F
JEFFERSON CITY MOCLDY    77  62  59 SW6       29.83F
ROLLA          PTCLDY    70  66  87 SW6       29.87F
SEDALIA        PTCLDY    72  64  76 SW7       29.91F
WARRENSBURG    PTCLDY    72  64  78 CALM      29.90S
OSAGE BEACH    CLEAR     75  64  69 SW6       29.89F

$$
MOZ051-052-059>065-030900-
...EAST CENTRAL MISSOURI...

CITY           SKY/WX    TMP DP  RH WIND       PRES   REMARKS
ST LOUIS INTL  CLOUDY    82  66  58 W12       29.83S
SPIRIT OF STL  CLOUDY    77  70  79 CALM      29.82F
ST CHARLES     CLOUDY    80  66  62 SW7       29.81R

$$
MOZ072>076-082>087-097>100-106>115-030900-
...SOUTH CENTRAL AND SOUTHEAST MISSOURI...

CITY           SKY/WX    TMP DP  RH WIND       PRES   REMARKS
CAPE GIRARDEAU MOCLDY    75  70  84 CALM      29.87S
FARMINGTON     CLEAR     75  66  73 CALM      29.92F
POPLAR BLUFF   CLEAR     75  71  87 CALM      29.87S
WEST PLAINS    CLEAR     72  67  84 W3        29.95F

$$


USA.gov is the U.S. government's official web portal to all federal, state and local government web resources and services.